�������l�o���
Date,Time,MP-1(��Sv/h),MP-2(��Sv/h),MP-3(��Sv/h),MP-4(��Sv/h),MP-5(��Sv/h),MP-6(��Sv/h),MP-7(��Sv/h),����,����(m/s),���J
2014/12/25,00:00,0.595,0.383,0.633,0.575,0.568,0.259,0.232,�k,8.7,��
2014/12/25,00:10,0.595,0.382,0.635,0.576,0.568,0.260,0.233,�k,7.2,��
2014/12/25,00:20,0.595,0.383,0.633,0.575,0.569,0.260,0.231,�k,6.0,��
2014/12/25,00:30,0.595,0.382,0.633,0.576,0.569,0.258,0.232,�k,7.0,��
2014/12/25,00:40,0.595,0.380,0.634,0.575,0.567,0.259,0.233,�k,6.9,��
2014/12/25,00:50,0.596,0.382,0.634,0.575,0.569,0.260,0.231,�k,6.3,��
2014/12/25,01:00,0.595,0.382,0.634,0.576,0.568,0.260,0.233,�k,4.8,��
2014/12/25,01:10,0.597,0.383,0.635,0.574,0.568,0.260,0.232,�k,5.3,��
2014/12/25,01:20,0.596,0.383,0.633,0.577,0.568,0.259,0.233,�k,5.2,��
2014/12/25,01:30,0.594,0.382,0.634,0.574,0.568,0.260,0.232,�k,5.3,��
2014/12/25,01:40,0.596,0.382,0.633,0.576,0.569,0.260,0.233,�k,5.3,��
2014/12/25,01:50,0.596,0.383,0.634,0.574,0.568,0.259,0.232,�k,4.3,��
2014/12/25,02:00,0.595,0.382,0.635,0.575,0.568,0.259,0.232,�k,3.4,��
2014/12/25,02:10,0.596,0.382,0.632,0.576,0.568,0.259,0.231,�k,3.4,��
2014/12/25,02:20,0.597,0.382,0.632,0.576,0.569,0.259,0.233,�k�k��,2.5,��
2014/12/25,02:30,0.594,0.381,0.633,0.576,0.568,0.261,0.233,�k�k��,4.2,��
2014/12/25,02:40,0.596,0.381,0.633,0.576,0.568,0.260,0.232,�k,4.0,��
2014/12/25,02:50,0.595,0.381,0.632,0.574,0.570,0.260,0.234,�k�k��,5.6,��
2014/12/25,03:00,0.595,0.382,0.633,0.574,0.568,0.260,0.233,�k,7.0,��
2014/12/25,03:10,0.595,0.382,0.633,0.575,0.569,0.260,0.232,�k,6.7,��
2014/12/25,03:20,0.594,0.381,0.634,0.574,0.569,0.261,0.233,�k,6.0,��
2014/12/25,03:30,0.595,0.383,0.633,0.576,0.567,0.261,0.232,�k,6.4,��
2014/12/25,03:40,0.596,0.382,0.632,0.575,0.570,0.259,0.233,�k,6.1,��
2014/12/25,03:50,0.596,0.382,0.632,0.573,0.567,0.259,0.233,�k�k��,6.0,��
2014/12/25,04:00,0.595,0.383,0.634,0.575,0.568,0.259,0.233,�k,4.7,��
2014/12/25,04:10,0.596,0.382,0.634,0.574,0.568,0.260,0.233,�k�k��,3.9,��
2014/12/25,04:20,0.595,0.381,0.631,0.574,0.569,0.259,0.232,�k�k��,3.6,��
2014/12/25,04:30,0.595,0.381,0.634,0.576,0.567,0.260,0.232,�k�k��,4.1,��
2014/12/25,04:40,0.595,0.383,0.633,0.577,0.568,0.260,0.233,�k�k��,5.4,��
2014/12/25,04:50,0.596,0.381,0.634,0.575,0.570,0.260,0.233,�k�k��,4.5,��
2014/12/25,05:00,0.596,0.381,0.633,0.573,0.568,0.260,0.233,�k�k��,4.5,��
2014/12/25,05:10,0.597,0.382,0.633,0.575,0.568,0.260,0.233,�k�k��,4.8,��
2014/12/25,05:20,0.596,0.381,0.633,0.575,0.566,0.259,0.233,�k�k��,4.5,��
2014/12/25,05:30,0.596,0.382,0.634,0.576,0.568,0.259,0.230,�k,5.5,��
2014/12/25,05:40,0.596,0.380,0.634,0.575,0.570,0.259,0.232,�k,2.2,��
2014/12/25,05:50,0.598,0.381,0.634,0.574,0.568,0.260,0.233,�k,2.5,��
2014/12/25,06:00,0.595,0.384,0.634,0.576,0.568,0.259,0.233,�k,2.7,��
2014/12/25,06:10,0.595,0.382,0.633,0.577,0.568,0.260,0.232,�k�k��,3.3,��
2014/12/25,06:20,0.596,0.381,0.633,0.574,0.570,0.260,0.233,�k,3.6,��
2014/12/25,06:30,0.594,0.382,0.634,0.577,0.568,0.259,0.232,�k�k��,1.9,��
2014/12/25,06:40,0.593,0.383,0.634,0.576,0.568,0.260,0.234,�k�k��,2.2,��
2014/12/25,06:50,0.596,0.382,0.633,0.575,0.568,0.259,0.233,�k�k��,2.2,��
2014/12/25,07:00,0.596,0.381,0.632,0.576,0.567,0.259,0.232,�k��,1.9,��
2014/12/25,07:10,0.596,0.380,0.631,0.575,0.567,0.259,0.232,��,1.9,��
2014/12/25,07:20,0.594,0.382,0.632,0.574,0.567,0.259,0.232,��,3.6,��
2014/12/25,07:30,0.595,0.382,0.633,0.574,0.566,0.261,0.232,���k��,4.5,��
2014/12/25,07:40,0.596,0.382,0.632,0.576,0.567,0.259,0.232,��,3.1,��
2014/12/25,07:50,0.595,0.382,0.634,0.575,0.567,0.260,0.232,���k��,3.5,��
2014/12/25,08:00,0.595,0.381,0.632,0.577,0.569,0.260,0.232,�k�k��,0.8,��
2014/12/25,08:10,0.598,0.382,0.635,0.576,0.568,0.259,0.232,�k�k��,3.8,��
2014/12/25,08:20,0.596,0.383,0.632,0.577,0.569,0.258,0.231,�k�k��,3.2,��
2014/12/25,08:30,0.596,0.383,0.634,0.575,0.568,0.259,0.232,�k�k��,2.3,��
2014/12/25,08:40,0.596,0.382,0.635,0.578,0.567,0.259,0.232,�k��,1.5,��
2014/12/25,08:50,0.596,0.382,0.635,0.577,0.568,0.259,0.231,�k��,1.6,��
2014/12/25,09:00,0.596,0.382,0.634,0.575,0.568,0.258,0.231,���k��,3.4,��
2014/12/25,09:10,0.597,0.382,0.634,0.577,0.568,0.259,0.231,�k��,2.4,��
2014/12/25,09:20,0.597,0.383,0.633,0.578,0.567,0.258,0.231,�k��,2.1,��
2014/12/25,09:30,0.595,0.383,0.634,0.576,0.568,0.259,0.231,�k��,2.8,��
2014/12/25,09:40,0.596,0.382,0.636,0.577,0.570,0.260,0.232,�k�k��,2.5,��
2014/12/25,09:50,0.597,0.384,0.635,0.576,0.568,0.260,0.233,��,3.8,��
2014/12/25,10:00,0.598,0.383,0.632,0.577,0.567,0.260,0.231,�k��,3.6,��
2014/12/25,10:10,0.597,0.383,0.636,0.576,0.570,0.259,0.232,���k��,8.0,��
2014/12/25,10:20,0.597,0.382,0.635,0.577,0.569,0.261,0.232,���k��,4.4,��
2014/12/25,10:30,0.596,0.383,0.633,0.578,0.569,0.259,0.232,���k��,3.1,��
2014/12/25,10:40,0.597,0.381,0.635,0.578,0.568,0.259,0.233,���k��,7.6,��
2014/12/25,10:50,0.598,0.384,0.635,0.577,0.567,0.261,0.233,��,10.4,��
2014/12/25,11:00,0.597,0.384,0.636,0.578,0.569,0.260,0.232,���k��,8.1,��
2014/12/25,11:10,0.598,0.383,0.636,0.579,0.570,0.260,0.232,��,10.8,��
2014/12/25,11:20,0.598,0.384,0.634,0.579,0.568,0.260,0.234,���k��,9.8,��
2014/12/25,11:30,0.597,0.382,0.633,0.577,0.567,0.259,0.232,��,7.6,��
2014/12/25,11:40,0.598,0.384,0.635,0.578,0.570,0.259,0.232,��,10.1,��
2014/12/25,11:50,0.596,0.383,0.636,0.576,0.569,0.260,0.231,��,9.0,��
2014/12/25,12:00,0.597,0.383,0.635,0.577,0.570,0.259,0.232,��,9.0,��
2014/12/25,12:10,0.596,0.383,0.635,0.579,0.570,0.261,0.233,��,11.4,��
2014/12/25,12:20,0.598,0.382,0.636,0.577,0.569,0.259,0.231,���k��,6.5,��
2014/12/25,12:30,0.599,0.383,0.634,0.578,0.569,0.259,0.232,���k��,7.5,��
2014/12/25,12:40,0.598,0.383,0.636,0.578,0.570,0.259,0.232,���k��,6.5,��
2014/12/25,12:50,0.597,0.383,0.637,0.577,0.568,0.261,0.233,��,9.6,��
2014/12/25,13:00,0.598,0.383,0.636,0.577,0.568,0.261,0.233,���k��,9.9,��
2014/12/25,13:10,0.599,0.384,0.637,0.578,0.570,0.261,0.232,���k��,10.1,��
2014/12/25,13:20,0.598,0.383,0.636,0.576,0.570,0.259,0.232,���k��,10.7,��
2014/12/25,13:30,0.599,0.382,0.635,0.577,0.569,0.260,0.232,���k��,9.8,��
2014/12/25,13:40,0.599,0.383,0.637,0.576,0.569,0.260,0.232,��,11.0,��
2014/12/25,13:50,0.598,0.382,0.637,0.576,0.569,0.260,0.234,��,9.6,��
2014/12/25,14:00,0.598,0.383,0.635,0.579,0.569,0.260,0.232,���k��,9.2,��
2014/12/25,14:10,0.598,0.383,0.635,0.578,0.568,0.260,0.233,��,13.7,��
2014/12/25,14:20,0.598,0.382,0.635,0.579,0.571,0.260,0.234,��,8.3,��
2014/12/25,14:30,0.597,0.383,0.637,0.578,0.570,0.259,0.233,��,6.1,��
2014/12/25,14:40,0.597,0.385,0.637,0.577,0.569,0.260,0.235,�k��,6.6,��
2014/12/25,14:50,0.600,0.383,0.635,0.575,0.570,0.260,0.233,���k��,12.4,��
2014/12/25,15:00,0.598,0.382,0.637,0.578,0.568,0.260,0.234,��,10.5,��
2014/12/25,15:10,0.599,0.383,0.635,0.577,0.568,0.260,0.233,��,8.8,��
2014/12/25,15:20,0.600,0.382,0.637,0.577,0.569,0.260,0.233,���k��,7.2,��
2014/12/25,15:30,0.600,0.383,0.636,0.577,0.569,0.260,0.232,���k��,3.9,��
2014/12/25,15:40,0.597,0.382,0.636,0.578,0.570,0.260,0.233,���k��,3.8,��
2014/12/25,15:50,0.598,0.383,0.636,0.577,0.569,0.261,0.235,�k,2.0,��
2014/12/25,16:00,0.598,0.382,0.637,0.578,0.570,0.261,0.233,��,2.9,��
2014/12/25,16:10,0.599,0.382,0.636,0.577,0.570,0.260,0.232,��,5.6,��
2014/12/25,16:20,0.600,0.383,0.635,0.577,0.569,0.259,0.234,���k��,5.3,��
2014/12/25,16:30,0.598,0.383,0.637,0.578,0.568,0.260,0.234,�k,2.1,��
2014/12/25,16:40,0.600,0.383,0.636,0.577,0.568,0.261,0.233,�k��,2.4,��
2014/12/25,16:50,0.601,0.383,0.636,0.576,0.570,0.260,0.233,�k��,3.7,��
2014/12/25,17:00,0.599,0.383,0.636,0.577,0.570,0.261,0.235,���k��,5.9,��
2014/12/25,17:10,0.596,0.382,0.635,0.578,0.568,0.262,0.233,�k��,6.4,��
2014/12/25,17:20,0.597,0.384,0.637,0.575,0.570,0.261,0.233,���k��,4.4,��
2014/12/25,17:30,0.599,0.382,0.634,0.577,0.569,0.261,0.233,�k��,2.2,��
2014/12/25,17:40,0.598,0.383,0.636,0.577,0.568,0.260,0.233,�k��,4.3,��
2014/12/25,17:50,0.600,0.382,0.636,0.576,0.570,0.259,0.233,�k��,5.7,��
2014/12/25,18:00,0.600,0.383,0.634,0.577,0.568,0.262,0.234,���k��,5.6,��
2014/12/25,18:10,0.598,0.383,0.636,0.576,0.569,0.260,0.234,���k��,5.5,��
2014/12/25,18:20,0.600,0.384,0.635,0.577,0.568,0.260,0.233,�k��,1.9,��
2014/12/25,18:30,0.599,0.382,0.634,0.578,0.569,0.260,0.233,�k��,3.1,��
2014/12/25,18:40,0.599,0.384,0.636,0.578,0.568,0.261,0.234,��,3.7,��
2014/12/25,18:50,0.598,0.383,0.637,0.576,0.569,0.260,0.233,���k��,4.1,��
2014/12/25,19:00,0.598,0.382,0.636,0.577,0.569,0.261,0.234,��,3.9,��
2014/12/25,19:10,0.596,0.383,0.636,0.577,0.570,0.260,0.233,��,0.9,��
2014/12/25,19:20,0.597,0.383,0.636,0.575,0.571,0.261,0.234,���쐼,1.6,��
2014/12/25,19:30,0.598,0.383,0.637,0.578,0.568,0.261,0.234,��,0.5,��
2014/12/25,19:40,0.599,0.381,0.636,0.577,0.570,0.260,0.233,�쐼,0.5,��
2014/12/25,19:50,0.598,0.383,0.636,0.576,0.570,0.261,0.234,�쐼,1.7,��
2014/12/25,20:00,0.598,0.382,0.636,0.578,0.568,0.261,0.233,�쐼,2.3,��
2014/12/25,20:10,0.597,0.382,0.635,0.578,0.568,0.261,0.234,�쐼,3.0,��
2014/12/25,20:20,0.598,0.380,0.636,0.576,0.568,0.261,0.233,�쐼,2.7,��
2014/12/25,20:30,0.597,0.382,0.635,0.578,0.568,0.261,0.233,�쐼,2.7,��
2014/12/25,20:40,0.600,0.381,0.636,0.577,0.568,0.261,0.233,�쐼,2.1,��
2014/12/25,20:50,0.598,0.384,0.637,0.577,0.568,0.260,0.234,�쐼,1.9,��
2014/12/25,21:00,0.599,0.381,0.636,0.576,0.568,0.259,0.234,���쐼,1.1,��
2014/12/25,21:10,0.597,0.381,0.637,0.577,0.568,0.260,0.233,��,1.0,��
2014/12/25,21:20,0.597,0.382,0.635,0.576,0.569,0.260,0.235,�쐼,1.7,��
2014/12/25,21:30,0.597,0.383,0.637,0.577,0.568,0.261,0.234,�쐼,2.5,��
2014/12/25,21:40,0.596,0.382,0.636,0.577,0.569,0.259,0.234,�쐼,2.2,��
2014/12/25,21:50,0.598,0.381,0.636,0.576,0.571,0.261,0.234,��,0.9,��
2014/12/25,22:00,0.596,0.381,0.636,0.579,0.567,0.259,0.233,���쐼,1.4,��
2014/12/25,22:10,0.598,0.382,0.635,0.575,0.568,0.260,0.234,��쐼,1.0,��
2014/12/25,22:20,0.598,0.382,0.635,0.576,0.567,0.260,0.233,��쐼,0.5,��
2014/12/25,22:30,0.597,0.382,0.637,0.577,0.569,0.260,0.233,-,CALM,��
2014/12/25,22:40,0.597,0.382,0.635,0.576,0.569,0.259,0.233,�쐼,0.6,��
2014/12/25,22:50,0.598,0.382,0.636,0.576,0.569,0.261,0.234,�쐼,0.5,��
2014/12/25,23:00,0.598,0.381,0.637,0.577,0.569,0.259,0.233,�k,0.8,��
2014/12/25,23:10,0.597,0.382,0.635,0.577,0.569,0.259,0.234,�k,0.9,��
2014/12/25,23:20,0.599,0.382,0.635,0.577,0.569,0.260,0.234,�k,1.4,��
2014/12/25,23:30,0.598,0.381,0.635,0.576,0.570,0.261,0.234,�k,2.3,��
2014/12/25,23:40,0.597,0.383,0.638,0.577,0.570,0.260,0.234,�k�k��,3.8,��
2014/12/25,23:50,0.595,0.381,0.636,0.575,0.568,0.260,0.234,�k�k��,3.3,��
